Location: Red Bud (historical)
(37.7759°N, 88.4053°W)
Time: 14:51:41
(UTC+00:00)

Daily predictions for brighter satellites

Satellite Brightness Start Highest point End
(mag) Time Altitude Azimuth Time Altitude Azimuth Time Altitude Azimuth
Cosmos 2219 3.7 23:13:13 10° N 23:18:35 38° ENE 23:23:54 10° SE
Cosmos 1892 4.1 23:19:28 10° NNE 23:22:12 18° ENE 23:24:55 10° ESE
Cosmos 1939 Rocket 4.0 23:19:43 10° ESE 23:22:48 22° ENE 23:25:51 10° NNE
Cosmos 1656 3.7 23:18:32 10° S 23:24:01 66° ESE 23:29:36 10° NNE
Cosmos 968 Rocket 4.4 23:21:06 10° N 23:25:29 27° ENE 23:29:47 10° ESE
OAO 3 Rocket 4.5 23:23:12 10° W 23:27:41 38° SSW 23:32:04 10° SE
Cosmos 1300 2.9 23:23:59 10° S 23:27:47 79° W 23:31:37 10° N
Aureole 3 Rocket 3.3 23:24:55 10° SSE 23:28:38 52° E 23:33:43 10° NNE
CZ-4B R/B 1.1 23:25:32 10° NNE 23:28:42 78° ESE 23:31:47 10° S
NOAA 12 4.1 23:24:00 10° SSE 23:29:17 85° ENE 23:34:38 10° NNW
SAR-Lupe-4 3.9 23:25:58 10° NNE 23:29:23 42° E 23:32:47 10° S
NOSS 3-3 (A) 4.1 23:24:27 10° S 23:29:54 50° ESE 23:35:54 10° NE
NOSS 3-3 (C) 4.1 23:24:35 10° S 23:30:01 49° ESE 23:36:00 10° NE
Cosmos 1400 Rocket 2.8 23:28:01 10° S 23:32:05 69° E 23:36:10 10° NNE
CZ-4B R/B 3.6 23:28:27 10° S 23:34:02 74° WSW 23:39:35 10° NNW
H-2A R/B 4.0 23:33:03 10° N 23:36:38 29° WNW 23:40:10 10° SW
Cosmos 2369 4.3 23:31:47 10° S 23:36:57 36° ESE 23:42:07 10° NE
Cosmos 1825 4.1 23:35:58 10° NE 23:37:01 11° ENE 23:37:07 11° ENE
GPS 2-04 Rocket1 3.7 23:33:57 10° SW 23:37:38 36° SSE 23:41:13 11° E
ERS-2 2.5 23:34:34 10° N 23:38:11 67° WNW 23:41:48 10° SSW
COSMO-SKYMED 1 2.9 23:35:02 10° NNE 23:39:13 46° E 23:43:22 10° S
Cosmos 1302 Rocket 4.4 23:36:03 10° SSW 23:41:15 67° WNW 23:46:32 10° NNE
Helios 1A Rocket 4.0 23:38:08 10° ESE 23:41:28 24° ENE 23:44:48 10° NNE
OAO 2 Rocket 3.6 23:37:36 10° WSW 23:42:34 61° S 23:46:58 13° E
Cosmos 1244 Rocket 4.5 23:38:30 10° N 23:44:43 71° E 23:50:59 10° SSE
ATLAS 2AS CENTAUR R/B 4.4 23:40:57 10° N 23:44:59 15° NNE 23:48:38 10° ENE
CZ-2D R/B 4.1 23:42:29 10° SE 23:45:46 28° ENE 23:49:03 10° NNE
SAR-Lupe-1 3.9 23:43:40 10° NNE 23:47:13 70° ESE 23:50:43 10° S
YAOGAN 1 3.8 23:44:17 10° ESE 23:47:31 21° ENE 23:50:47 10° NNE
Cosmos 1340 2.6 23:44:28 10° N 23:48:12 59° E 23:51:55 10° SSE
Cosmos 2227 Rocket 2.3 23:43:46 10° NNW 23:49:18 52° ENE 23:54:47 10° SE
CZ-4 R/B 2.3 23:48:21 10° SE 23:51:30 24° ENE 23:54:39 10° NNE
Cosmos 1812 Rocket 4.4 23:49:32 10° SSE 23:53:16 28° E 23:56:59 10° NNE
Okean O Rocket 3.0 23:51:18 10° S 23:55:27 43° W 23:59:36 10° NNW
SL-4 R/B 4.0 23:56:12 10° N 23:57:43 12° NNE 23:58:53 11° NE
